EW8784 Weather Reports


time (UTC)temp
C
wind
direction
speed
KPH
gust
KPH
rain 1hr
cm
rain 24hr
cm
rain mn
cm
humidity
%
barometer
mb
20260509200004 13 359 0.0 0.0 0.00 0.00 0.00 59 1023.6
20260509194505 12 359 0.0 0.0 0.00 0.00 0.00 61 1023.4
20260509193003 13 359 0.0 0.0 0.00 0.00 0.00 62 1023.2
20260509190003 13 359 0.0 0.0 0.00 0.00 0.00 60 1022.9
20260509184505 13 359 0.0 0.0 0.00 0.00 0.00 60 1022.6
20260509183003 13 359 0.0 0.0 0.00 0.00 0.00 59 1022.5
20260509181507 13 359 0.0 0.0 0.00 0.00 0.00 60 1022.2
20260509174505 13 359 0.0 0.0 0.00 0.00 0.00 72 1021.9
20260509173002 13 359 0.0 0.0 0.00 0.00 0.00 85 1021.7
20260509171506 13 359 0.0 0.0 0.00 0.00 0.00 95 1021.6
20260509170004 13 359 0.0 0.0 0.00 0.00 0.00 99 1021.5
20260509164505 13 359 0.0 0.0 0.00 0.00 0.00 100 1021.3
20260509163003 14 359 0.0 0.0 0.00 0.00 0.00 100 1021.2
20260509161507 14 359 0.0 0.0 0.00 0.00 0.00 100 1021.3
20260509160003 14 359 0.0 0.0 0.00 0.00 0.00 100 1021.0
20260509153008 15 359 0.0 0.0 0.00 0.00 0.00 100 1020.8
20260509151505 15 359 0.0 0.0 0.00 0.00 0.00 100 1020.9
20260509150003 15 359 0.0 0.0 0.00 0.00 0.00 100 1021.0
20260509144505 15 359 0.0 0.0 0.00 0.00 0.00 100 1020.8
20260509143003 15 359 0.0 0.0 0.00 0.00 0.00 99 1020.7
20260509141506 16 359 0.0 0.0 0.00 0.00 0.00 97 1020.5
20260509140005 16 359 0.0 0.0 0.00 0.00 0.00 96 1020.4
20260509134506 16 359 0.0 0.0 0.00 0.00 0.00 89 1020.3
20260509133004 16 359 0.0 0.0 0.00 0.00 0.00 83 1020.1
20260509131508 16 359 0.0 0.0 0.00 0.00 0.00 77 1020.0
20260509124506 17 359 0.0 0.0 0.00 0.00 0.00 68 1019.8
20260509123003 17 359 0.0 0.0 0.00 0.00 0.00 65 1019.6
20260509121507 17 359 0.0 0.0 0.00 0.00 0.00 63 1019.7
20260509120004 18 359 0.0 0.0 0.00 0.00 0.00 60 1019.7
20260509114505 18 359 0.0 0.0 0.00 0.00 0.00 56 1019.5
20260509111506 19 359 0.0 0.0 0.00 0.00 0.00 54 1019.1
20260509110004 19 359 0.0 0.0 0.00 0.00 0.00 54 1018.8
20260509104505 19 359 0.0 0.0 0.00 0.00 0.00 52 1018.6
20260509103002 19 359 0.0 0.0 0.00 0.00 0.00 51 1018.4
20260509101506 20 359 0.0 0.0 0.00 0.00 0.00 50 1018.1
20260509100004 20 359 0.0 0.0 0.00 0.00 0.00 48 1017.9
20260509094505 20 359 0.0 0.0 0.00 0.00 0.00 48 1017.9
20260509093003 20 359 0.0 3.2 0.00 0.00 0.00 49 1017.5
20260509091506 20 359 0.0 0.0 0.00 0.00 0.00 48 1017.3
20260509084504 21 359 0.0 0.0 0.00 0.00 0.00 47 1016.8
20260509083008 21 359 0.0 0.0 0.00 0.00 0.00 47 1016.5
20260509081505 21 359 0.0 0.0 0.00 0.00 0.00 48 1016.2
20260509080003 22 179 0.0 0.0 0.00 0.00 0.00 48 1016.0
20260509074505 22 179 0.0 0.0 0.00 0.00 0.00 48 1015.7
20260509071505 22 359 0.0 0.0 0.00 0.00 0.00 45 1015.1
20260509070003 23 349 0.0 0.0 0.00 0.00 0.00 41 1014.7
20260509064505 23 349 0.0 0.0 0.00 0.00 0.00 41 1014.5
20260509063008 23 349 0.0 0.0 0.00 0.00 0.00 43 1014.2
20260509054509 25 359 0.0 0.0 0.00 0.00 0.00 37 1013.9
20260509053006 25 359 0.0 0.0 0.00 0.00 0.00 37 1013.8
20260509051510 25 326 0.0 0.0 0.00 0.00 0.00 33 1013.9
20260509050007 25 326 0.0 0.0 0.00 0.00 0.00 32 1013.7
20260509044507 25 326 0.0 0.0 0.00 0.00 0.00 31 1013.7
20260509041503 25 65 0.0 0.0 0.00 0.00 0.00 30 1013.5
20260509040007 24 226 0.0 0.0 0.00 0.00 0.00 31 1013.6
20260509034506 24 93 0.0 0.0 0.00 0.00 0.00 31 1013.9
20260509031506 23 323 0.0 0.0 0.00 0.00 0.00 33 1013.7
20260509024512 23 323 0.0 0.0 0.00 0.00 0.00 32 1014.0
20260509023008 23 323 0.0 0.0 0.00 0.00 0.00 34 1014.0
20260509021505 22 323 0.0 0.0 0.00 0.00 0.00 32 1014.1
20260509020004 22 323 0.0 0.0 0.00 0.00 0.00 33 1014.2
20260509013007 23 323 0.0 0.0 0.00 0.00 0.00 29 1014.1
20260509011505 23 323 0.0 0.0 0.00 0.00 0.00 29 1014.0
20260509010008 22 323 0.0 0.0 0.00 0.00 0.00 28 1014.0
20260509003007 22 323 0.0 0.0 0.00 0.00 0.00 26 1013.5
20260509001504 22 323 0.0 0.0 0.00 0.00 0.00 26 1013.3
20260509000002 22 323 0.0 0.0 0.00 0.00 0.00 26 1013.2
20260508234506 22 323 0.0 0.0 0.00 0.00 0.00 26 1013.2
20260508233008 22 323 0.0 0.0 0.00 0.00 0.00 27 1013.1
20260508231505 21 323 0.0 0.0 0.00 0.00 0.00 27 1013.1
20260508230003 21 323 0.0 0.0 0.00 0.00 0.00 29 1012.9
20260508224506 20 323 0.0 0.0 0.00 0.00 0.00 30 1012.6
20260508223008 20 323 0.0 0.0 0.00 0.00 0.00 29 1012.5
20260508220003 18 323 0.0 0.0 0.00 0.00 0.00 37 1011.9
20260508214506 18 323 0.0 0.0 0.00 0.00 0.00 39 1011.7
20260508213008 18 323 0.0 0.0 0.00 0.00 0.00 39 1011.5
20260508211505 17 323 0.0 0.0 0.00 0.00 0.00 39 1011.1
20260508210003 17 323 0.0 0.0 0.00 0.00 0.00 42 1010.8
20260508204506 17 323 0.0 0.0 0.00 0.00 0.00 43 1010.4
20260508203008 17 323 0.0 0.0 0.00 0.00 0.00 42 1010.3